Location: Oshawa
(43.9000°N, 78.8670°W)
Time: 00:38:54
(UTC-04:00)

SPOT 5 - Visible Passes

Search period start: 21 August 2017 00:00
Search period end: 31 August 2017 00:00
Orbit: 623 x 816 km, 98.4° (Epoch: 20 August)

Date Brightness Start Highest point End Pass type
(mag) Time Alt. Az. Time Alt. Az. Time Alt. Az.
21 Aug 4.8 20:55:02 10° E 20:57:07 13° ENE 20:59:10 10° NNE visible
21 Aug 2.8 22:33:36 56° S 22:34:37 83° WSW 22:39:17 10° NNW visible
22 Aug 3.7 21:43:06 26° ESE 21:44:42 33° ENE 21:48:50 10° N visible
22 Aug 4.3 23:22:21 28° WSW 23:22:46 28° W 23:26:47 10° NW visible
23 Aug 4.8 20:53:22 10° E 20:55:07 12° ENE 20:56:52 10° NE visible
23 Aug 2.7 22:31:51 64° S 22:32:36 86° WSW 22:37:13 10° NNW visible
24 Aug 3.7 21:41:20 26° E 21:42:42 31° ENE 21:46:43 10° N visible
24 Aug 4.3 23:20:36 29° W 23:20:45 29° W 23:24:45 10° NW visible
25 Aug 4.8 20:51:45 10° ENE 20:53:08 11° ENE 20:54:30 10° NE visible
25 Aug 2.6 22:30:05 72° SSE 22:30:34 90° E 22:35:09 10° NNW visible
26 Aug 3.7 21:39:35 26° E 21:40:41 30° ENE 21:44:36 10° N visible
26 Aug 4.2 23:18:50 30° W 23:18:50 30° W 23:22:44 10° NW visible
27 Aug 4.9 20:50:17 10° ENE 20:51:08 10° ENE 20:51:58 10° NE visible
27 Aug 2.6 22:28:20 81° SE 22:28:33 86° ENE 22:33:04 10° NNW visible
28 Aug 3.8 21:37:49 26° E 21:38:40 28° ENE 21:42:29 10° N visible
28 Aug 4.2 23:17:04 31° W 23:17:04 31° W 23:20:41 10° NW visible
29 Aug 2.6 22:26:34 82° ENE 22:26:34 82° ENE 22:31:00 10° NNW visible
30 Aug 3.8 21:36:03 26° E 21:36:39 26° ENE 21:40:21 10° N visible
30 Aug 4.2 23:15:18 31° W 23:15:18 31° W 23:18:40 10° NNW visible
